Location: Unspecified
(0.0000°N, 0.0000°E)
Time: 05:47:07
(UTC+00:00)

X-37B - Pass Details

Date: 02 August 2020
Orbit: 379 x 395 km, 45.0° (Epoch: 12 August)

Event Time Altitude Azimuth Distance (km) Brightness Sun altitude
Rises 20:05:50 0° 255° (WSW) 2,237 5.2 -28.4°
Reaches altitude 10° 20:08:50 10° 287° (WNW) 1,385 4.3 -29.1°
Enters shadow 20:09:58 12° 308° (NW) 1,261 4.0 -29.4°
